User: anonymous   Login
Location: Unspecified
(0.0000°N, 0.0000°E)
Time: 09:19:03
(UTC+00:00)
Language:

GONETS M 10 (M20) - Orbit

View from above orbital plane
View from above orbital plane
View from above satellite
View from above satellite

Ground track
Ground track

The orbit data is extracted from the following two-line orbital elements,

1 40063U 14036C   17268.91922316 +.00000010 +00000-0 +00000-0 0  9995
2 40063 082.5097 126.5191 0020468 250.0781 109.8093 12.42896357146631
Epoch (UTC): 25 September 2017 22:03:40
Eccentricity: 0.0020468
inclination: 82.5097°
perigee height: 1478 km
apogee height: 1510 km
right ascension of ascending node: 126.5191°
argument of perigee: 250.0781°
revolutions per day: 12.42896357
mean anomaly at epoch: 109.8093°
orbit number at epoch: 14663

The dashed part of the orbit path shows where the satellite is in the earth's shadow,  

DLR